EW2958 Weather Reports


time (UTC)temp
C
wind
direction
speed
KPH
gust
KPH
rain 1hr
cm
rain 24hr
cm
rain mn
cm
humidity
%
barometer
mb
20260504081549 15 283 3.2 17.7 0.00 0.00 0.00 70 1008.7
20260504044541 17 318 20.9 43.5 0.00 0.00 0.00 57 1007.3
20260504043038 17 11 11.3 38.6 0.00 0.00 0.00 58 1007.2
20260504041534 17 338 17.7 41.8 0.00 0.00 0.00 57 1007.2
20260504040030 18 327 17.7 37.0 0.00 0.00 0.00 57 1007.1
20260504034526 17 324 24.1 41.8 0.00 0.00 0.00 57 1007.1
20260504033025 17 354 19.3 40.2 0.00 0.00 0.00 57 1007.3
20260504031522 17 302 16.1 38.6 0.00 0.00 0.00 58 1007.6
20260504030028 17 299 19.3 40.2 0.00 0.00 0.00 59 1007.8
20260504024516 17 343 20.9 46.7 0.00 0.03 0.00 59 1008.0
20260504023012 16 333 16.1 45.1 0.00 0.03 0.00 61 1008.1
20260504021510 16 338 9.7 37.0 0.00 0.03 0.00 63 1008.4
20260504020012 16 343 22.5 51.5 0.00 0.46 0.00 62 1008.5
20260504014508 16 276 20.9 37.0 0.00 0.46 0.00 60 1008.6
20260504013009 16 16 14.5 41.8 0.00 0.46 0.00 59 1008.7
20260504011506 16 317 11.3 32.2 0.00 0.46 0.00 59 1008.8
20260504010004 16 331 12.9 33.8 0.00 0.61 0.00 59 1008.9
20260504004502 16 327 12.9 38.6 0.00 0.61 0.00 58 1008.9
20260504003104 16 340 16.1 37.0 0.00 0.61 0.00 58 1009.0
20260504001611 16 30 14.5 30.6 0.00 0.61 0.00 60 1009.2
20260504000156 15 342 16.1 32.2 0.00 0.61 0.00 61 1009.3
20260503234554 15 352 11.3 27.4 0.00 0.69 0.00 62 1009.4
20260503233050 15 45 12.9 27.4 0.00 0.69 0.00 65 1009.4
20260503231546 14 41 17.7 29.0 0.00 0.69 0.00 66 1009.5
20260503230047 14 63 12.9 25.7 0.00 0.69 0.00 68 1009.7
20260503224538 13 46 12.9 24.1 0.00 0.79 0.00 69 1009.6
20260503223037 12 23 12.9 24.1 0.00 0.79 0.00 71 1009.7
20260503221534 12 31 11.3 20.9 0.00 0.79 0.00 73 1009.8
20260503220045 11 32 9.7 17.7 0.00 0.79 0.00 74 1009.8
20260503214533 11 37 9.7 17.7 0.00 0.79 0.00 75 1009.8
20260503213132 11 3 12.9 24.1 0.00 0.79 0.00 75 1009.7
20260503211531 11 14 12.9 22.5 0.00 0.79 0.00 75 1009.7
20260503210029 11 339 11.3 17.7 0.00 0.79 0.00 74 1009.7
20260503204527 11 338 8.0 17.7 0.00 0.79 0.00 73 1009.6
20260503203030 11 2 9.7 19.3 0.00 0.79 0.00 72 1009.4
20260503201524 11 45 11.3 25.7 0.00 0.79 0.00 71 1009.3
20260503200021 11 360 11.3 17.7 0.00 0.79 0.00 72 1009.3
20260503194522 11 30 6.4 16.1 0.00 0.79 0.00 69 1009.4
20260503193017 12 25 4.8 14.5 0.00 0.79 0.00 69 1009.4
20260503191520 11 48 8.0 17.7 0.00 0.79 0.00 70 1009.5
20260503190013 11 360 4.8 12.9 0.00 0.79 0.00 72 1009.6
20260503184510 10 25 3.2 8.0 0.00 0.79 0.00 74 1009.8
20260503183007 11 68 1.6 9.7 0.00 0.79 0.00 71 1009.9
20260503181505 11 18 4.8 12.9 0.00 0.79 0.00 71 1009.8
20260503180008 11 71 8.0 16.1 0.00 0.79 0.00 71 1010.0
20260503174600 11 13 6.4 14.5 0.00 0.79 0.00 72 1010.0
20260503173102 11 46 3.2 11.3 0.00 0.79 0.00 73 1010.2
20260503171554 11 66 3.2 14.5 0.00 0.79 0.00 70 1010.2